Regional Weather Roundup
Issued by NWS

Home | Current Version | Previous Version | Text Only | Print | Product List | Glossary Off
Versions: 1 2 3 4 5 6 7 8 9 10 11 12 13 14 15 16 17 18 19 20 21 22 23 24 25 26 27 28 29 30 31 32 33 34 35 36 37 38 39 40 41 42 43 44 45 46 47 48 49 50

000
ASUS45 KPSR 260610
RWRAZ

ARIZONA HOURLY REGIONAL WEATHER ROUNDUP
NATIONAL WEATHER SERVICE PHOENIX AZ
1100 PM MST THU AUG 25 2016

NOTE: FAIR INDICATES FEW OR NO CLOUDS BELOW 12,000 FEET WITH NO
SIGNIFICANT WEATHER AND/OR OBSTRUCTIONS TO VISIBILITY.

AZZ001>003-036-260700-
NORTHWEST ARIZONA

CITY           SKY/WX    TMP DP  RH WIND       PRES   REMARKS
BULLHEAD CITY  FAIR      97  48  19 S12       29.76S
KINGMAN        FAIR      79  52  38 S8        29.98F
6HR MIN TEMP:  78; 6HR MAX TEMP:  91;

$$

AZZ004>008-015-016-018-260700-
NORTH CENTRAL ARIZONA

CITY           SKY/WX    TMP DP  RH WIND       PRES   REMARKS
GRAND CANYON     N/A    N/A N/A N/A MISG      30.27F
PRESCOTT       LGT RAIN  62  57  83 S10       30.20R
6HR MIN TEMP:  62; 6HR MAX TEMP:  71; 6HR PCP:  0.30;

FLAGSTAFF      MOCLDY    52  50  93 CALM      30.31R
6HR MIN TEMP:  51; 6HR MAX TEMP:  60; 6HR PCP:  0.28;

PAGE           LGT RAIN  64  55  72 S6        30.17F
6HR MIN TEMP:  62; 6HR MAX TEMP:  73; 6HR PCP:  0.07;

$$

AZZ009>014-017-260700-
NORTHEAST ARIZONA

CITY           SKY/WX    TMP DP  RH WIND       PRES   REMARKS
WINSLOW        FAIR      63  51  65 N3        30.24R
6HR MIN TEMP:  63; 6HR MAX TEMP:  74; 6HR PCP: TRACE;

SAINT JOHNS    CLOUDY    66  45  46 N6        30.25R
6HR MIN TEMP:  62; 6HR MAX TEMP:  76;

WINDOW ROCK    FAIR      57  48  72 N10       30.31F
6HR MIN TEMP:  57; 6HR MAX TEMP:  67;

$$

AZZ023-260700-
GREATER PHOENIX AREA

CITY           SKY/WX    TMP DP  RH WIND       PRES   REMARKS
PHOENIX        FAIR      94  54  25 NW6       29.83R
6HR MIN TEMP:  92; 6HR MAX TEMP: 101;

LUKE AFB       FAIR      91  53  28 N3        29.84R
6HR MIN TEMP:  90; 6HR MAX TEMP: 101; 6HR PCP: TRACE;

DEER VALLEY    FAIR      88  54  31 NE3       29.86R
6HR MIN TEMP:  88; 6HR MAX TEMP:  99;

SCOTTSDALE     FAIR      90  54  29 CALM      29.88R
6HR MIN TEMP:  90; 6HR MAX TEMP:  99;

MESA-GATEWAY   PTCLDY    90  54  29 SE3       29.87R
$$

AZZ027-028-260700-
SOUTHWEST MARICOPA COUNTY AND PINAL COUNTY

CITY           SKY/WX    TMP DP  RH WIND       PRES   REMARKS
CASA GRANDE    FAIR      91  55  29 W8        29.89R
6HR MIN TEMP:  90; 6HR MAX TEMP: 100;

GILA BEND      CLEAR     90  52  26 S7        29.83R
6HR MIN TEMP:  90; 6HR MAX TEMP: 103;

$$

AZZ503-504-507>509-260700-
SOUTHEAST ARIZONA

CITY           SKY/WX    TMP DP  RH WIND       PRES   REMARKS
TUCSON         FAIR      85  56  37 NE3       30.01R
6HR MIN TEMP:  85; 6HR MAX TEMP:  97;

DAVIS-MONTHAN  CLOUDY    82  56  40 SE5       29.99R
6HR MIN TEMP:  82; 6HR MAX TEMP:  94;

NOGALES        MOCLDY    70  58  65 CALM      30.12R
6HR MIN TEMP:  70; 6HR MAX TEMP:  87; 6HR PCP: TRACE;

SIERRA VISTA   FAIR      70  51  50 S2        30.15R
6HR MIN TEMP:  70; 6HR MAX TEMP:  81;

DOUGLAS        FAIR      67  53  61 E5        30.12R
6HR MIN TEMP:  66; 6HR MAX TEMP:  82;

SAFFORD        CLOUDY    75  59  57 N7        30.01F
6HR MIN TEMP:  75; 6HR MAX TEMP:  94; 6HR PCP:  0.20;

$$

AZZ020-021-025-026-031-260700-
SOUTHWEST ARIZONA

CITY           SKY/WX    TMP DP  RH WIND       PRES   REMARKS
YUMA           FAIR      87  68  52 SE8       29.78S
6HR MIN TEMP:  86; 6HR MAX TEMP: 104;

$$

CAZ031-033-041-043-047-048-061-260700-
SOUTHERN CALIFORNIA

CITY           SKY/WX    TMP DP  RH WIND       PRES   REMARKS
DOWNTOWN L.A.  CLOUDY    66  60  81 CALM      29.92S
6HR MIN TEMP:  66; 6HR MAX TEMP:  75;

L.A. AIRPORT   MOCLDY    66  60  81 SW8       29.92S
6HR MIN TEMP:  66; 6HR MAX TEMP:  71;

SAN DIEGO      CLOUDY    67  59  75 NW6       29.95S
6HR MIN TEMP:  66; 6HR MAX TEMP:  71;

BURBANK        MOCLDY    65  60  84 S6        29.92R
6HR MIN TEMP:  65; 6HR MAX TEMP:  78;

ONTARIO        FAIR      66  57  72 SW6       29.92F
6HR MIN TEMP:  65; 6HR MAX TEMP:  84;

RIVERSIDE      FAIR      67  58  72 VRB5      29.92F
6HR MIN TEMP:  67; 6HR MAX TEMP:  84;

PALM SPRINGS   FAIR      88  49  25 NW12      29.79S
6HR MIN TEMP:  88; 6HR MAX TEMP: 105;

EL CENTRO NAS  FAIR      87  37  17 N6        29.77S
6HR MIN TEMP:  87; 6HR MAX TEMP: 106;

IMPERIAL         N/A     91  64  40 E5        29.75S
6HR MIN TEMP:  90; 6HR MAX TEMP: 107;

BLYTHE         FAIR      92  53  26 SW5       29.79R
6HR MIN TEMP:  91; 6HR MAX TEMP: 106;

NEEDLES        FAIR      96  50  20 SW12      29.78S
6HR MIN TEMP:  96; 6HR MAX TEMP: 106;

$$

NVZ020-UTZ003-260700-
SOUTHERN NEVADA-UTAH

CITY           SKY/WX    TMP DP  RH WIND       PRES   REMARKS
LAS VEGAS      FAIR      88  31  13 SW7       29.80S
6HR MIN TEMP:  88; 6HR MAX TEMP: 100;

SALT LAKE CITY FAIR      70  29  21 E6        30.01S
6HR MIN TEMP:  69; 6HR MAX TEMP:  84;

$$

NMZ009-TXZ055-260700-
NEW MEXICO-WEST TEXAS

CITY           SKY/WX    TMP DP  RH WIND       PRES   REMARKS
ALBUQUERQUE    MOCLDY    71  47  42 SE6       30.19S
6HR MIN TEMP:  71; 6HR MAX TEMP:  84;

EL PASO        MOCLDY    73  55  53 S5        30.11S
6HR MIN TEMP:  72; 6HR MAX TEMP:  85;

$$


........................KEY........................
SKY/WX - SKY CONDITION/WEATHER
TMP    - TEMPERATURE IN FAHRENHEIT
DP     - DEW POINT IN FAHRENHEIT
RH     - RELATIVE HUMIDITY IN PERCENT
WIND   - DIRECTION AND SPEED IN MILES PER HOUR (MPH)
VRB    - VARIABLE WIND DIRECTION
PRES   - MEAN SEA LEVEL PRESSURE IN INCHES OF MERCURY
         F - FALLING PRESSURE   R - RISING PRESSURE
         S - STEADY PRESSURE
VSB    - VISIBILITY IN MILES
HX     - HEAT INDEX IN FAHRENHEIT
WCI    - WIND CHILL INDEX IN FAHRENHEIT
TC     - TEMPERATURE IN CELSIUS WHICH IS ALSO KNOWN AS
         TEMPERATURE IN CENTIGRADE
AFB    - AIR FORCE BASE
         LUKE AFB IS LUKE AIR FORCE BASE
         DAVIS-MONTHAN IS DAVIS-MONTHAN AIR FORCE BASE
NAS    - NAVAL AIR STATION
         EL CENTRO NAS IS EL CENTRO NAVAL AIR STATION
N/A    - NOT AVAILABLE




USA.gov is the U.S. government's official web portal to all federal, state and local government web resources and services.